Showing default

GLOBALSTAR M036, 25623

Orbit data source: Space-Track

GLOBALSTAR M036, 25623 is a payload satellite owned by Globalstar (US) in LEO that was launched on Tue, 09 Feb 1999 UTC via a SOYUZ-U-PVB launch vehicle from the Tyuratam Missile And Space Complex (TTMTR). Payload-class satellites include a variety of spacecraft equipped with specific instruments for various scientific and technological missions. These include communications satellites like Starlink; space stations such as the ISS; scientific satellites like the Hubble; Earth observation satellites from companies like Planet Labs, Umbra, and HawkEye 360; GPS; miniature CubeSats for education and research; and military/defense satellites.

Loading next visibility...
Identifier
25623, 1999-004C
Orbit
LEO
Country
Flag of UnknownUnknown / GLOB
Related business
Manufacturer
SS/Loral
Mission
Non-operational Commercial Communications
Bus & Motor
LS-400, LS-400 AOCS
Mass
450 kg wet, 380 kg dry
Launch date (UTC)
1999-02-09 (27 years ago)
Launch vehicle
SOYUZ-U-PVB
Launch site
Tyuratam Missile And Space Complex (TTMTR)
Object type
Payload
Rocket body
Debris
Shape & HBR
Box + 2 Pan, 6.0 m
Radar Cross Section
5.587 m², Large (>1 m²)

Expand to show TLE details & history
Last TLE update: 10 hours ago

TLE from 10 hours ago
0 GLOBALSTAR M036
1 25623U 99004C   25261.28485962 -.00000048  00000-0  50938-3 0  9991
2 25623  52.0002 354.9343 0010635 226.5322 166.9514 11.86608778190034
Epoch: 2025-09-18T06:50Z
TLE epoch observation values (Epoch: 2025-09-18T06:50:11.871Z)
Latitude
25.85351°
Longitude
-82.92908°
Altitude
1,750.732 km
Speed
7.003 km/s
True Right ascension
01h 08m 16s
True Declination
25° 44' 07"
Sunlit
Object was in full shadow at epoch
Visualization orbit readout
Latitude
Unknown
Longitude
Unknown
Altitude
Unknown
Speed
Unknown
Apparent Right ascension
Unknown
Apparent Declination
Unknown
Sunlit
N/A
Visualization observer readout
Local Sidereal Time
09:20:27
Azimuth
Unknown
Elevation
Unknown
Doppler factor
Unknown
Orbital elements
Apogee altitude
1,750.391 km
Perigee altitude
1,733.12 km
Semi-major axis
8,119.893 km
Eccentricity
0.00106
Inclination
52.0002°
RAAN
354.9343°
Arg. of periapsis
226.5322°
True anomaly
166.97888°
Mean anomaly
166.9514°
Eccentric anomaly
166.96514°
Mean motion
2.96632 °/min
Orbital period
121.36 mins
BSTAR
0.00050938
Loading maneuver chart data...
Computing Atmospheric mass density...
Loading historical data...
Loading historical data...
Loading historical data...
Loading historical data...
Loading historical data...
Loading historical data...
Loading historical data...
Other satellites on launch #4 in the year 1999 (1999-02-09 UTC)

Documentation

Showing up to 5 results
|